SL-16 R/B, 23343

Orbit data source: Space-Track

SL-16 R/B, 23343 is space debris in SSO originally from a launch on Fri, 04 Nov 1994 UTC launched from the Tyuratam Missile And Space Complex (TTMTR). Debris objects in space refer to the collection of defunct objects orbiting the Earth. Examples of debris include non-operational satellites, rocket bodies, and fragments generated from explosions, collisions, or faulty payload assembly.

Loading next visibility...
Identifier
23343, 1994-074B
Orbit
SSO
Country
Flag of CISCIS
Related business
Manufacturer
Yuzhnoe
Mission
Spacecraft
Bus & Motor
11S772, Unknown motor
Mass
9,000 kg wet, 9,000 kg dry
Launch date (UTC)
1994-11-04 (32 years ago)
Launch vehicle
Unknown
Launch site
Tyuratam Missile And Space Complex (TTMTR)
Object type
Payload
Rocket body
Debris
Shape & HBR
Cyl, 5.2 m
Radar Cross Section
37.829 m², Large (>1 m²)

Expand to show TLE details & history
Last TLE update: 16 hours ago

TLE from 16 hours ago
0 SL-16 R/B
1 23343U 94074B   26209.06268339  .00000449  00000-0  66572-4 0  9992
2 23343  97.6983 234.0782 0007913 118.2010 295.7365 14.79534109708003
Epoch: 2026-07-28T01:30Z
TLE epoch observation values (Epoch: 2026-07-28T01:30:15.844Z)
Latitude
53.2576°
Longitude
-104.60013°
Altitude
637.123 km
Speed
7.546 km/s
True Right ascension
14h 54m 48s
True Declination
53° 05' 23"
Sunlit
Object was in daylight at epoch
Visualization orbit readout
Latitude
Unknown
Longitude
Unknown
Altitude
Unknown
Speed
Unknown
Apparent Right ascension
Unknown
Apparent Declination
Unknown
Sunlit
N/A
Visualization observer readout
Local Sidereal Time
06:33:36
Azimuth
Unknown
Elevation
Unknown
Doppler factor
Unknown
Orbital elements
Apogee altitude
633.371 km
Perigee altitude
622.284 km
Semi-major axis
7,005.965 km
Eccentricity
0.00079
Inclination
97.6983°
RAAN
234.0782°
Arg. of periapsis
118.201°
True anomaly
295.65478°
Mean anomaly
295.7365°
Eccentric anomaly
295.69565°
Mean motion
3.70119 °/min
Orbital period
97.27 mins
BSTAR
0.000066572
Loading maneuver chart data...
Computing Atmospheric mass density...

Documentation

Showing up to 5 results
|